Flag for Japan Weather past 2 weeks in Matsuyama, Japan

Now
39 °F

Passing clouds.


Feels Like: 34 °F
Forecast: 35 / 51 °F
Wind: 7 mph from Southeast

Location: Matsuyama Airport

Current Time: Mar 2, 2015 at 8:48:50 AM

Latest Report: Mar 2, 2015 at 8:00 AM


Visibility: N/A

Pressure: 30.09 "Hg

Humidity: 81%

Dew point: 34 °F

Location of MatsuyamaLocation

Historic Weather in Matsuyama — Graph

°F

Matsuyama temperature yesterday

Maximum temperature yesterday: 46 °F (at 7:00 AM)
Minimum temperature yesterday: 45 °F (at 10:00 AM)
Average temperature yesterday: 46 °F

Past Weeks' High & Low Weather Summary

 TemperatureHumidityPressure
High55 °F (Feb 17, 1:00 PM)100% (Feb 26, 11:49 AM)30.33 "Hg (Feb 26, 11:49 AM)
Low34 °F (Feb 20, 7:00 AM)32% (Feb 20, 2:00 PM)29.83 "Hg (Feb 17, 1:00 PM)
Average48 °F67%30.06 "Hg
* Reported Feb 15 8:00 AM — Mar 2 8:00 AM, Matsuyama, Weather by CustomWeather, © 2015

Note: Actual official high and low records may vary slightly from our data, if they occured in-between our weather recording intervals... More about our weather records

Advertising

Matsuyama weather history for previous 24 hours

 ConditionsComfort  
Time TempWeatherWind HumidityBarometerVisibility
8:00 AM
Mon, Mar 2
39 °FPassing clouds.7 mph81%30.09 "HgN/A
7:00 AM37 °FScattered clouds.9 mph81%30.07 "HgN/A
9:00 PM
Sun, Mar 1
45 °FPassing clouds.18 mph61%29.98 "HgN/A
8:00 PM46 °FPassing clouds.22 mph62%29.98 "HgN/A
7:00 PM46 °FScattered showers. Partly cloudy.13 mph71%29.95 "HgN/A
6:00 PM45 °FRain showers. Broken clouds.8 mph81%29.89 "HgN/A
5:00 PM46 °FBroken clouds.3 mph82%29.89 "HgN/A
4:00 PM46 °FBroken clouds.8 mph82%29.86 "HgN/A
3:00 PM46 °FBroken clouds.6 mph93%29.86 "HgN/A
2:00 PM45 °FSprinkles. Broken clouds.12 mph87%29.89 "Hg5 mi
1:00 PM45 °FRain showers. Fog.8 mph93%29.89 "Hg3 mi
12:00 PM45 °FRain showers. Fog.10 mph93%29.89 "Hg2 mi
11:00 AM45 °FRain showers. Fog.14 mph93%29.89 "Hg2 mi
10:00 AM45 °FRain showers. Fog.17 mph87%29.89 "Hg2 mi
9:00 AM46 °FSprinkles. Fog.25 mph82%29.86 "Hg4 mi
8:00 AM46 °FLight rain. Partly sunny.9 mph82%29.86 "HgN/A
Weather by CustomWeather, © 2015

See weather overviewHow to use our weather pages